This demonstration page uses our WeatherBlox Daily Observations layout. Learn more.

Left ArrowRight Arrow

Hourly Observations for January 9, 2022

Temp ( °F °C ) Dew Point ( °F °C ) Humidity (%) Winds ( mph kmh ) Pressure ( in mb ) Visibility ( mi km ) Precip ( " mm )
12:53 am 00:53 Clear -7 -21.7 -14 -25.6 71 71 SSW 6 9 30.40 1029 10 16 0.00 0.00
1:53 am 01:53 Clear -14 -25.6 -19 -28.3 78 78 ESE 7 11 30.39 1029 10 16 0.00 0.00
2:53 am 02:53 Mostly Cloudy -11 -23.9 -16 -26.7 78 78 ENE 6 9 30.39 1029 10 16 0.00 0.00
3:53 am 03:53 Mostly Clear -12 -24.4 -17 -27.2 78 78 ENE 6 9 30.39 1029 10 16 0.00 0.00
4:53 am 04:53 Clear -12 -24.4 -17 -27.2 78 78 E 6 9 30.40 1030 10 16 0.00 0.00
5:53 am 05:53 Clear -12 -24.4 -18 -27.8 73 73 E 3 6 30.41 1030 10 16 0.00 0.00
6:53 am 06:53 Clear -6 -21.1 -11 -23.9 78 78 WSW 5 7 30.42 1030 10 16 0.00 0.00
7:53 am 07:53 Clear -5 -20.6 -9 -22.8 83 83 W 8 13 30.44 1031 9 14 0.00 0.00
8:53 am 08:53 Sunny -8 -22.2 -13 -25 78 78 NW 6 9 30.47 1032 10 16 0.00 0.00
9:53 am 09:53 Sunny -4 -20 -11 -23.9 71 71 Calm 30.50 1033 10 16 0.00 0.00
10:53 am 10:53 Sunny 0 -17.8 -9 -22.8 65 65 Calm 30.50 1033 10 16 0.00 0.00
11:53 am 11:53 Sunny 7 -13.9 -2 -18.9 66 66 NW 5 7 30.48 1032 10 16 0.00 0.00
12:53 pm 12:53 Sunny 24 -4.4 16 -8.9 71 71 SW 13 20 30.44 1031 10 16 0.00 0.00
1:53 pm 13:53 Sunny 29 -1.7 19 -7.2 66 66 SW 16 26 30.45 1031 10 16 0.00 0.00
2:53 pm 14:53 Sunny 28 -2.2 19 -7.2 69 69 Calm 30.46 1031 10 16 0.00 0.00
3:53 pm 15:53 Sunny 8 -13.3 1 -17.2 73 73 E 7 11 30.51 1033 10 16 0.00 0.00
4:53 pm 16:53 Mostly Cloudy 6 -14.4 0 -17.8 76 76 E 7 11 30.54 1034 10 16 0.00 0.00
5:53 pm 17:53 Mostly Clear 4 -15.6 -2 -18.9 76 76 E 7 11 30.54 1034 10 16 0.00 0.00
6:53 pm 18:53 Clear 4 -15.6 -2 -18.9 76 76 E 7 11 30.54 1034 10 16 0.00 0.00
7:53 pm 19:53 Clear 3 -16.1 -3 -19.4 76 76 ESE 5 7 30.54 1034 10 16 0.00 0.00
8:53 pm 20:53 Clear 3 -16.1 -3 -19.4 76 76 E 7 11 30.56 1035 10 16 0.00 0.00
9:53 pm 21:53 Clear 1 -17.2 -4 -20 79 79 Calm 30.54 1034 10 16 0.00 0.00
10:53 pm 22:53 Clear 2 -16.7 -3 -19.4 80 80 ENE 6 9 30.53 1034 10 16 0.00 0.00
11:53 pm 23:53 Clear 2 -16.7 -3 -19.4 80 80 WSW 7 11 30.50 1033 10 16 0.00 0.00

Powered by AerisWeather